sat.trackr.live / text

‹ back to catalog

STARLINK-37183

NORAD 68349 · 2026-059AE

PAYLOAD ACTIVE UNKNOWN

§ Identity

Operator
Country
US
Launch date
2026-03-22
Launch site
AFETR
Launch vehicle
Mass (kg)
RCS (m²)

Purposes: comms

External: N2YO · Heavens-Above · Gunter

§ Orbital elements

Epoch: 2026-09-20T04:45:42.465024Z

Period
93.85 min
Inclination
53.1603°
Eccentricity
0.0000993
Mean motion
15.34403239 rev/d
Perigee alt
462.0 km
Apogee alt
463.4 km
Semi-major
6,840.8 km
B*
5.8839e-4
RAAN
162.8109°
Arg perigee
74.7164°
Mean anomaly
285.3948°
Rev number
2,798

§ Raw data

STARLINK-371831 68349U 26059AE  26263.19840816  .00019558  00000+0  58839-3 0  99912 68349  53.1603 162.8109 0000993  74.7164 285.3948 15.34403239 27986

JSON: /api/v1/satellites/68349 · /tle

For live sub-satellite position, see the globe view (requires WebGL).

§ Visibility from observer

Set your observer location to see the next 7 days of passes ≥ 10°. The values pass through the URL so the page stays shareable.

No JS? Fill the form by hand. The geolocation button needs JavaScript.